Find Tianyan-16

NORAD ID: 58502 Int'l Des: 2023-189 Owner: ZHK/TLCJ Country: CN operational
LEOCIRCULARRETROGRADESSO

Aktuelle Ansicht

3D-Globus wird geladen...

Über Tianyan-16

Beschreibung wird geladen...

Nächste Überflüge

Passes for default location (London). Set your location on the main map for personalized predictions.

Höhenverlauf

Loading altitude history...

Zweizeiliger Elementsatz

1 58502U 23189A 26159.11011096 .00005065 00000-0 16002-3 0 9993
2 58502 97.4377 177.2916 0009231 295.7481 64.2808 15.33246875139828
Epoch: 8. Juni 2026 • Age: 6 hours

Aktueller Status

Höhe 488.4 km
Geschwindigkeit 7.62 km/s
Subsatellitenpunkt -81.26°S, 149.66°W
Startdatum 4. Dez. 2023
Alter 2.5 years
Typ other

Technische Details

Klassifizierung Payload
Masse 165.00 kg
Trockenmasse 165.00 kg
Gesamtmasse 165.00 kg
Länge 1.00 m
Durchmesser 1.00 m
Spannweite 6.00 m
Form Box + 2 pan
Hersteller GMKK
Bus-Typ MN50
Phasenstatus In Orbit
Besitzer/Staat ZHK/TLCJ/CN

Most Searched